Time,TemperatureF,DewpointF,PressureIn,WindDirection,WindDirectionDegrees,WindSpeedMPH,WindSpeedGustMPH,Humidity,HourlyPrecipIn,Conditions,Clouds,dailyrainin,SoftwareType,DateUTC
2013-04-02 00:02:00,50.1,49.0,30.38,SSW,202,0.0,3.3,98,0.00,,,0.00,Rainwise IP-100,2013-04-02 07:02:00,
2013-04-02 00:07:00,50.1,49.0,30.38,WSW,247,0.0,4.0,98,0.00,,,0.00,Rainwise IP-100,2013-04-02 07:07:00,
2013-04-02 00:12:00,50.1,49.0,30.38,SSE,157,1.2,4.4,98,0.00,,,0.00,Rainwise IP-100,2013-04-02 07:12:00,
2013-04-02 00:17:00,50.0,49.0,30.38,WSW,247,0.0,3.0,98,0.00,,,0.00,Rainwise IP-100,2013-04-02 07:17:00,
2013-04-02 00:22:00,50.0,49.0,30.38,SSE,157,0.0,2.8,98,0.00,,,0.00,Rainwise IP-100,2013-04-02 07:22:00,
2013-04-02 00:27:00,49.9,49.0,30.38,SSW,202,0.0,3.3,98,0.00,,,0.00,Rainwise IP-100,2013-04-02 07:27:00,
2013-04-02 00:32:00,49.9,49.0,30.38,SSW,202,1.2,2.3,98,0.00,,,0.00,Rainwise IP-100,2013-04-02 07:32:00,
2013-04-02 00:37:00,49.9,49.0,30.39,WSW,247,2.6,7.2,98,0.00,,,0.00,Rainwise IP-100,2013-04-02 07:37:00,
2013-04-02 00:42:00,49.9,50.0,30.39,WSW,247,0.0,7.2,99,0.00,,,0.00,Rainwise IP-100,2013-04-02 07:42:00,
2013-04-02 00:47:00,49.8,50.0,30.38,SE,135,0.0,3.7,99,0.00,,,0.00,Rainwise IP-100,2013-04-02 07:47:00,
2013-04-02 00:52:00,49.8,50.0,30.39,WNW,292,0.0,4.2,99,0.00,,,0.00,Rainwise IP-100,2013-04-02 07:52:00,
2013-04-02 00:57:00,49.7,50.0,30.39,SW,225,0.0,4.2,99,0.00,,,0.00,Rainwise IP-100,2013-04-02 07:57:00,
2013-04-02 01:02:00,49.7,50.0,30.39,SSW,202,2.8,5.1,99,0.00,,,0.00,Rainwise IP-100,2013-04-02 08:02:00,
2013-04-02 01:07:00,49.8,50.0,30.39,SSE,157,2.3,6.5,99,0.00,,,0.00,Rainwise IP-100,2013-04-02 08:07:00,
2013-04-02 01:12:00,49.9,50.0,30.39,SSW,202,0.0,6.3,99,0.00,,,0.00,Rainwise IP-100,2013-04-02 08:12:00,
2013-04-02 01:17:00,50.0,50.0,30.39,WSW,247,3.5,7.7,99,0.00,,,0.00,Rainwise IP-100,2013-04-02 08:17:00,
2013-04-02 01:22:00,50.0,50.0,30.40,West,270,4.9,5.6,99,0.00,,,0.00,Rainwise IP-100,2013-04-02 08:22:00,
2013-04-02 01:27:00,50.1,50.0,30.40,WNW,292,0.0,6.3,99,0.00,,,0.00,Rainwise IP-100,2013-04-02 08:27:00,
2013-04-02 01:32:00,50.3,50.5,30.40,WSW,247,0.0,5.6,99,0.00,,,0.00,Rainwise IP-100,2013-04-02 08:32:00,
2013-04-02 01:37:00,50.5,50.5,30.40,WNW,292,2.1,7.2,99,0.00,,,0.00,Rainwise IP-100,2013-04-02 08:37:00,
2013-04-02 01:42:00,50.5,50.5,30.40,SW,225,4.0,9.3,100,0.00,,,0.00,Rainwise IP-100,2013-04-02 08:42:00,
2013-04-02 01:47:00,50.6,50.5,30.40,West,270,3.3,8.9,100,0.00,,,0.00,Rainwise IP-100,2013-04-02 08:47:00,
2013-04-02 01:52:00,50.6,50.5,30.40,WSW,247,4.4,11.2,100,0.00,,,0.00,Rainwise IP-100,2013-04-02 08:52:00,
2013-04-02 01:57:00,50.6,50.5,30.40,WSW,247,1.6,10.7,100,0.00,,,0.00,Rainwise IP-100,2013-04-02 08:57:00,
2013-04-02 02:02:00,50.6,50.5,30.40,WSW,247,2.6,11.7,100,0.00,,,0.00,Rainwise IP-100,2013-04-02 09:02:00,
2013-04-02 02:07:00,50.6,50.5,30.40,SE,135,2.6,7.7,100,0.00,,,0.00,Rainwise IP-100,2013-04-02 09:07:00,
2013-04-02 02:12:00,50.6,50.5,30.40,WNW,292,1.4,6.3,100,0.00,,,0.00,Rainwise IP-100,2013-04-02 09:12:00,
2013-04-02 02:17:00,50.6,50.5,30.40,SSW,202,2.1,4.2,100,0.00,,,0.00,Rainwise IP-100,2013-04-02 09:17:00,
2013-04-02 02:22:00,50.5,50.5,30.40,WSW,247,1.9,8.2,100,0.00,,,0.00,Rainwise IP-100,2013-04-02 09:22:00,
2013-04-02 02:27:00,50.4,50.5,30.40,WNW,292,7.7,9.3,100,0.00,,,0.00,Rainwise IP-100,2013-04-02 09:27:00,
2013-04-02 02:32:00,50.4,50.5,30.39,West,270,1.2,10.7,100,0.00,,,0.00,Rainwise IP-100,2013-04-02 09:32:00,
2013-04-02 02:37:00,50.3,50.5,30.39,NW,315,2.3,8.4,100,0.00,,,0.00,Rainwise IP-100,2013-04-02 09:37:00,
2013-04-02 02:42:00,50.3,50.5,30.39,SSW,202,1.2,9.8,100,0.00,,,0.00,Rainwise IP-100,2013-04-02 09:42:00,
2013-04-02 02:47:00,50.3,50.5,30.39,WNW,292,2.3,6.1,100,0.00,,,0.00,Rainwise IP-100,2013-04-02 09:47:00,
2013-04-02 02:52:00,50.2,50.0,30.39,WNW,292,6.3,12.6,100,0.00,,,0.00,Rainwise IP-100,2013-04-02 09:52:00,
2013-04-02 02:57:00,50.2,50.0,30.39,WSW,247,4.2,9.3,100,0.00,,,0.00,Rainwise IP-100,2013-04-02 09:57:00,
2013-04-02 03:02:00,50.3,50.5,30.39,WSW,247,2.3,8.2,100,0.00,,,0.00,Rainwise IP-100,2013-04-02 10:02:00,
2013-04-02 03:07:00,50.2,50.0,30.39,NNW,337,0.0,11.9,100,0.00,,,0.00,Rainwise IP-100,2013-04-02 10:07:00,
2013-04-02 03:12:00,50.2,50.0,30.39,NNW,337,0.0,10.0,100,0.00,,,0.00,Rainwise IP-100,2013-04-02 10:12:00,
2013-04-02 03:17:00,50.3,50.5,30.39,South,180,2.8,7.0,100,0.00,,,0.00,Rainwise IP-100,2013-04-02 10:17:00,
2013-04-02 03:22:00,50.3,50.5,30.39,WSW,247,4.7,10.3,100,0.00,,,0.00,Rainwise IP-100,2013-04-02 10:22:00,
2013-04-02 03:27:00,50.2,50.0,30.38,ENE,67,0.0,7.2,100,0.00,,,0.00,Rainwise IP-100,2013-04-02 10:27:00,
2013-04-02 03:32:00,50.1,50.0,30.39,WNW,292,1.2,6.1,100,0.00,,,0.00,Rainwise IP-100,2013-04-02 10:32:00,
2013-04-02 03:37:00,50.2,50.0,30.39,SW,225,2.1,6.8,100,0.00,,,0.00,Rainwise IP-100,2013-04-02 10:37:00,
2013-04-02 03:42:00,50.2,50.0,30.38,WSW,247,4.0,7.0,100,0.00,,,0.00,Rainwise IP-100,2013-04-02 10:42:00,
2013-04-02 03:47:00,50.1,50.0,30.38,WNW,292,9.1,9.1,100,0.00,,,0.00,Rainwise IP-100,2013-04-02 10:47:00,
2013-04-02 03:52:00,50.1,50.0,30.38,NNW,337,3.0,10.3,100,0.00,,,0.00,Rainwise IP-100,2013-04-02 10:52:00,
2013-04-02 03:57:00,50.1,50.0,30.38,SW,225,5.1,7.2,100,0.00,,,0.00,Rainwise IP-100,2013-04-02 10:57:00,
2013-04-02 04:02:00,50.1,50.0,30.38,SSE,157,0.0,8.6,100,0.00,,,0.00,Rainwise IP-100,2013-04-02 11:02:00,
2013-04-02 04:07:00,50.1,50.0,30.38,SSE,157,0.0,7.2,100,0.00,,,0.00,Rainwise IP-100,2013-04-02 11:07:00,
2013-04-02 04:12:00,50.1,50.0,30.39,West,270,2.1,8.2,99,0.00,,,0.00,Rainwise IP-100,2013-04-02 11:12:00,
2013-04-02 04:17:00,50.2,50.0,30.38,WSW,247,1.6,9.6,99,0.00,,,0.00,Rainwise IP-100,2013-04-02 11:17:00,
2013-04-02 04:22:00,50.2,50.0,30.38,West,270,5.1,6.5,99,0.00,,,0.00,Rainwise IP-100,2013-04-02 11:22:00,
2013-04-02 04:27:00,50.2,50.0,30.38,NNE,22,0.0,9.8,99,0.00,,,0.00,Rainwise IP-100,2013-04-02 11:27:00,
2013-04-02 04:32:00,50.2,50.0,30.38,WSW,247,0.0,4.9,99,0.00,,,0.00,Rainwise IP-100,2013-04-02 11:32:00,
2013-04-02 04:37:00,50.3,50.5,30.38,SW,225,0.0,4.2,99,0.00,,,0.00,Rainwise IP-100,2013-04-02 11:37:00,
2013-04-02 04:42:00,50.3,50.5,30.38,North,360,0.0,5.1,99,0.00,,,0.00,Rainwise IP-100,2013-04-02 11:42:00,
2013-04-02 04:47:00,50.3,50.5,30.38,WSW,247,4.7,6.5,99,0.00,,,0.00,Rainwise IP-100,2013-04-02 11:47:00,
2013-04-02 04:52:00,50.4,50.5,30.38,WNW,292,6.1,6.1,99,0.00,,,0.00,Rainwise IP-100,2013-04-02 11:52:00,
2013-04-02 04:57:00,50.4,50.5,30.39,WSW,247,3.3,6.5,99,0.00,,,0.00,Rainwise IP-100,2013-04-02 11:57:00,
2013-04-02 05:02:00,50.4,50.5,30.39,ESE,112,1.9,11.2,99,0.00,,,0.00,Rainwise IP-100,2013-04-02 12:02:00,
2013-04-02 05:07:00,50.3,50.5,30.38,West,270,7.0,7.9,99,0.00,,,0.00,Rainwise IP-100,2013-04-02 12:07:00,
2013-04-02 05:12:00,50.3,50.0,30.38,WNW,292,2.8,8.4,98,0.00,,,0.00,Rainwise IP-100,2013-04-02 12:12:00,
2013-04-02 05:17:00,50.2,49.0,30.38,West,270,1.6,5.6,98,0.00,,,0.00,Rainwise IP-100,2013-04-02 12:17:00,
2013-04-02 05:22:00,50.0,49.0,30.38,WSW,247,0.0,3.3,98,0.00,,,0.00,Rainwise IP-100,2013-04-02 12:22:00,
2013-04-02 05:28:00,49.9,49.0,30.38,SW,225,0.0,5.4,98,0.00,,,0.00,Rainwise IP-100,2013-04-02 12:28:00,
2013-04-02 05:33:00,49.9,49.0,30.38,SSW,202,0.0,3.7,98,0.00,,,0.00,Rainwise IP-100,2013-04-02 12:33:00,
2013-04-02 05:38:00,49.9,49.0,30.38,WNW,292,5.4,8.4,98,0.00,,,0.00,Rainwise IP-100,2013-04-02 12:38:00,
2013-04-02 05:43:00,49.9,49.0,30.38,WSW,247,2.3,6.5,98,0.00,,,0.00,Rainwise IP-100,2013-04-02 12:43:00,
2013-04-02 05:48:00,49.8,49.0,30.39,West,270,2.6,8.2,98,0.00,,,0.00,Rainwise IP-100,2013-04-02 12:48:00,
2013-04-02 05:53:00,49.7,49.0,30.39,WNW,292,4.9,8.6,98,0.00,,,0.00,Rainwise IP-100,2013-04-02 12:53:00,
2013-04-02 05:58:00,49.8,49.0,30.39,WSW,247,0.0,5.8,98,0.00,,,0.00,Rainwise IP-100,2013-04-02 12:58:00,
2013-04-02 06:03:00,49.8,49.0,30.39,SW,225,3.0,4.0,98,0.00,,,0.00,Rainwise IP-100,2013-04-02 13:03:00,
2013-04-02 06:08:00,49.8,49.0,30.39,SW,225,1.4,5.4,98,0.00,,,0.00,Rainwise IP-100,2013-04-02 13:08:00,
2013-04-02 06:13:00,49.8,49.0,30.39,WSW,247,0.0,5.4,98,0.00,,,0.00,Rainwise IP-100,2013-04-02 13:13:00,
2013-04-02 06:18:00,49.7,49.0,30.39,SW,225,5.4,5.6,98,0.00,,,0.00,Rainwise IP-100,2013-04-02 13:18:00,
2013-04-02 06:23:00,49.7,49.0,30.39,WNW,292,2.1,8.6,98,0.00,,,0.00,Rainwise IP-100,2013-04-02 13:23:00,
2013-04-02 06:28:00,49.7,49.0,30.39,West,270,3.5,7.0,98,0.00,,,0.00,Rainwise IP-100,2013-04-02 13:28:00,
2013-04-02 06:33:00,49.6,49.0,30.39,SW,225,3.3,4.9,98,0.00,,,0.00,Rainwise IP-100,2013-04-02 13:33:00,
2013-04-02 06:38:00,49.5,49.0,30.39,WSW,247,4.2,6.8,98,0.00,,,0.00,Rainwise IP-100,2013-04-02 13:38:00,
2013-04-02 06:43:00,49.5,49.0,30.39,SW,225,4.7,6.5,98,0.00,,,0.00,Rainwise IP-100,2013-04-02 13:43:00,
2013-04-02 06:48:00,49.6,49.0,30.39,SSW,202,1.6,6.3,98,0.00,,,0.00,Rainwise IP-100,2013-04-02 13:48:00,
2013-04-02 06:53:00,49.8,49.0,30.39,WSW,247,2.1,6.8,98,0.00,,,0.00,Rainwise IP-100,2013-04-02 13:53:00,
2013-04-02 06:58:00,49.9,50.0,30.39,SW,225,3.7,5.8,99,0.00,,,0.00,Rainwise IP-100,2013-04-02 13:58:00,
2013-04-02 07:03:00,49.9,50.0,30.39,SW,225,8.2,8.2,99,0.00,,,0.00,Rainwise IP-100,2013-04-02 14:03:00,
2013-04-02 07:08:00,49.8,50.0,30.39,SW,225,0.0,8.4,99,0.00,,,0.00,Rainwise IP-100,2013-04-02 14:08:00,
2013-04-02 07:13:00,49.7,50.0,30.39,West,270,1.9,6.5,99,0.00,,,0.00,Rainwise IP-100,2013-04-02 14:13:00,
2013-04-02 07:18:00,49.7,50.0,30.40,SSE,157,4.0,8.9,99,0.00,,,0.00,Rainwise IP-100,2013-04-02 14:18:00,
2013-04-02 07:23:00,49.6,50.0,30.39,SW,225,4.4,6.8,99,0.00,,,0.00,Rainwise IP-100,2013-04-02 14:23:00,
2013-04-02 07:28:00,49.4,49.0,30.39,SE,135,3.3,7.7,99,0.00,,,0.00,Rainwise IP-100,2013-04-02 14:28:00,
2013-04-02 07:33:00,49.2,49.0,30.40,SW,225,6.8,7.2,99,0.00,,,0.00,Rainwise IP-100,2013-04-02 14:33:00,
2013-04-02 07:38:00,49.2,49.0,30.40,WSW,247,1.4,8.4,99,0.00,,,0.00,Rainwise IP-100,2013-04-02 14:38:00,
2013-04-02 07:43:00,49.4,49.0,30.40,WSW,247,0.0,5.8,99,0.00,,,0.00,Rainwise IP-100,2013-04-02 14:43:00,
2013-04-02 07:48:00,49.7,50.0,30.40,SSW,202,1.9,4.7,99,0.00,,,0.00,Rainwise IP-100,2013-04-02 14:48:00,
2013-04-02 07:53:00,49.7,50.0,30.40,SE,135,0.0,7.0,99,0.00,,,0.00,Rainwise IP-100,2013-04-02 14:53:00,
2013-04-02 07:58:00,49.6,50.0,30.40,SW,225,3.3,5.6,99,0.00,,,0.00,Rainwise IP-100,2013-04-02 14:58:00,
2013-04-02 08:03:00,49.6,50.0,30.41,ESE,112,1.2,4.2,99,0.00,,,0.00,Rainwise IP-100,2013-04-02 15:03:00,
2013-04-02 08:08:00,49.6,50.0,30.41,South,180,1.9,7.9,99,0.00,,,0.00,Rainwise IP-100,2013-04-02 15:08:00,
2013-04-02 08:13:00,49.5,50.0,30.41,SW,225,5.4,6.8,99,0.00,,,0.00,Rainwise IP-100,2013-04-02 15:13:00,
2013-04-02 08:18:00,49.4,49.0,30.41,SSW,202,3.5,5.8,99,0.00,,,0.00,Rainwise IP-100,2013-04-02 15:18:00,
2013-04-02 08:23:00,49.6,50.0,30.41,SW,225,5.8,8.2,99,0.00,,,0.00,Rainwise IP-100,2013-04-02 15:23:00,
2013-04-02 08:28:00,49.8,50.0,30.41,SSE,157,0.0,7.9,99,0.00,,,0.00,Rainwise IP-100,2013-04-02 15:28:00,
2013-04-02 08:33:00,49.9,50.0,30.41,SSW,202,2.3,6.1,99,0.00,,,0.00,Rainwise IP-100,2013-04-02 15:33:00,
2013-04-02 08:38:00,50.0,50.0,30.41,WSW,247,0.0,5.8,99,0.00,,,0.00,Rainwise IP-100,2013-04-02 15:38:00,
2013-04-02 08:43:00,50.1,50.0,30.41,SW,225,2.6,3.5,99,0.00,,,0.00,Rainwise IP-100,2013-04-02 15:43:00,
2013-04-02 08:48:00,50.3,50.5,30.41,SSE,157,2.6,7.9,99,0.00,,,0.00,Rainwise IP-100,2013-04-02 15:48:00,
2013-04-02 08:53:00,50.2,50.0,30.40,SSE,157,0.0,6.5,99,0.00,,,0.00,Rainwise IP-100,2013-04-02 15:53:00,
2013-04-02 08:58:00,50.2,49.0,30.41,WNW,292,0.0,4.2,98,0.00,,,0.00,Rainwise IP-100,2013-04-02 15:58:00,
2013-04-02 09:03:00,50.6,50.0,30.40,ESE,112,0.0,3.0,98,0.00,,,0.00,Rainwise IP-100,2013-04-02 16:03:00,
2013-04-02 09:08:00,50.7,50.0,30.41,WNW,292,3.0,4.7,98,0.00,,,0.00,Rainwise IP-100,2013-04-02 16:08:00,
2013-04-02 09:14:00,50.6,50.0,30.40,West,270,0.0,4.9,98,0.00,,,0.00,Rainwise IP-100,2013-04-02 16:14:00,
2013-04-02 09:19:00,50.8,50.5,30.41,WNW,292,0.0,2.1,98,0.00,,,0.00,Rainwise IP-100,2013-04-02 16:19:00,
2013-04-02 09:24:00,51.1,50.5,30.40,WSW,247,2.1,3.7,97,0.00,,,0.00,Rainwise IP-100,2013-04-02 16:24:00,
2013-04-02 09:29:00,51.2,50.5,30.41,West,270,3.0,4.2,97,0.00,,,0.00,Rainwise IP-100,2013-04-02 16:29:00,
2013-04-02 09:34:00,51.4,50.5,30.41,West,270,0.0,3.7,97,0.00,,,0.00,Rainwise IP-100,2013-04-02 16:34:00,
2013-04-02 09:39:00,51.7,50.5,30.40,SW,225,4.7,4.7,96,0.00,,,0.00,Rainwise IP-100,2013-04-02 16:39:00,
2013-04-02 09:44:00,51.7,50.5,30.41,WSW,247,3.0,5.6,96,0.00,,,0.00,Rainwise IP-100,2013-04-02 16:44:00,
2013-04-02 09:49:00,51.7,50.5,30.41,WSW,247,0.0,6.5,95,0.00,,,0.00,Rainwise IP-100,2013-04-02 16:49:00,
2013-04-02 09:54:00,51.7,50.5,30.41,WNW,292,1.6,4.0,95,0.00,,,0.00,Rainwise IP-100,2013-04-02 16:54:00,
2013-04-02 09:59:00,52.0,50.5,30.41,WSW,247,4.4,6.5,95,0.00,,,0.00,Rainwise IP-100,2013-04-02 16:59:00,
2013-04-02 10:04:00,52.3,50.5,30.41,SSE,157,1.9,5.4,94,0.00,,,0.00,Rainwise IP-100,2013-04-02 17:04:00,
2013-04-02 10:09:00,52.5,51.0,30.42,SW,225,3.7,4.7,94,0.00,,,0.00,Rainwise IP-100,2013-04-02 17:09:00,
2013-04-02 10:14:00,52.9,50.5,30.42,SSW,202,2.6,4.7,93,0.00,,,0.00,Rainwise IP-100,2013-04-02 17:14:00,
2013-04-02 10:19:00,52.9,50.5,30.42,WNW,292,1.2,8.9,93,0.00,,,0.00,Rainwise IP-100,2013-04-02 17:19:00,
2013-04-02 10:24:00,52.7,50.5,30.42,WSW,247,8.6,10.0,93,0.00,,,0.00,Rainwise IP-100,2013-04-02 17:24:00,
2013-04-02 10:29:00,52.3,50.5,30.42,SSW,202,2.1,11.0,94,0.00,,,0.00,Rainwise IP-100,2013-04-02 17:29:00,
2013-04-02 10:34:00,51.8,50.5,30.42,SW,225,4.7,10.3,94,0.00,,,0.00,Rainwise IP-100,2013-04-02 17:34:00,
2013-04-02 10:39:00,51.4,50.0,30.42,SSE,157,4.9,11.2,95,0.00,,,0.00,Rainwise IP-100,2013-04-02 17:39:00,
2013-04-02 10:44:00,51.1,50.0,30.42,WSW,247,4.9,9.8,95,0.00,,,0.00,Rainwise IP-100,2013-04-02 17:44:00,
2013-04-02 10:49:00,51.4,50.0,30.42,NW,315,2.3,12.4,96,0.00,,,0.00,Rainwise IP-100,2013-04-02 17:49:00,
2013-04-02 10:54:00,51.8,50.5,30.42,West,270,4.0,9.3,96,0.00,,,0.00,Rainwise IP-100,2013-04-02 17:54:00,
2013-04-02 10:59:00,51.9,50.5,30.42,WSW,247,4.0,11.2,95,0.00,,,0.00,Rainwise IP-100,2013-04-02 17:59:00,
2013-04-02 11:04:00,51.9,50.5,30.42,SSW,202,3.7,10.5,95,0.00,,,0.00,Rainwise IP-100,2013-04-02 18:04:00,
2013-04-02 11:09:00,52.0,50.5,30.43,North,360,3.0,9.8,95,0.00,,,0.00,Rainwise IP-100,2013-04-02 18:09:00,
2013-04-02 11:14:00,52.2,50.5,30.43,SW,225,4.2,9.6,94,0.00,,,0.00,Rainwise IP-100,2013-04-02 18:14:00,
2013-04-02 11:19:00,52.3,50.5,30.43,WSW,247,0.0,10.0,94,0.00,,,0.00,Rainwise IP-100,2013-04-02 18:19:00,
2013-04-02 11:24:00,52.5,50.5,30.43,ESE,112,1.2,9.6,93,0.00,,,0.00,Rainwise IP-100,2013-04-02 18:24:00,
2013-04-02 11:29:00,52.7,50.5,30.43,NW,315,2.8,9.6,93,0.00,,,0.00,Rainwise IP-100,2013-04-02 18:29:00,
2013-04-02 11:34:00,53.1,50.5,30.43,SW,225,4.0,9.8,92,0.00,,,0.00,Rainwise IP-100,2013-04-02 18:34:00,
2013-04-02 11:39:00,53.6,51.0,30.43,SW,225,1.2,8.2,92,0.00,,,0.00,Rainwise IP-100,2013-04-02 18:39:00,
2013-04-02 11:44:00,53.7,50.5,30.43,NNW,337,1.2,11.0,91,0.00,,,0.00,Rainwise IP-100,2013-04-02 18:44:00,
2013-04-02 11:49:00,54.0,51.0,30.43,West,270,9.1,9.1,91,0.00,,,0.00,Rainwise IP-100,2013-04-02 18:49:00,
2013-04-02 11:54:00,54.1,51.0,30.43,SSW,202,6.1,10.3,90,0.00,,,0.00,Rainwise IP-100,2013-04-02 18:54:00,
2013-04-02 11:59:00,53.8,51.0,30.43,SSW,202,9.8,11.7,90,0.00,,,0.00,Rainwise IP-100,2013-04-02 18:59:00,
2013-04-02 12:04:00,53.6,50.5,30.43,WNW,292,2.6,12.1,90,0.00,,,0.00,Rainwise IP-100,2013-04-02 19:04:00,
2013-04-02 12:09:00,54.0,50.5,30.42,SSE,157,2.8,9.8,89,0.00,,,0.00,Rainwise IP-100,2013-04-02 19:09:00,
2013-04-02 12:14:00,54.3,51.0,30.42,WSW,247,1.2,9.3,88,0.00,,,0.00,Rainwise IP-100,2013-04-02 19:14:00,
2013-04-02 12:19:00,54.3,51.0,30.42,NW,315,2.6,11.9,88,0.00,,,0.00,Rainwise IP-100,2013-04-02 19:19:00,
2013-04-02 12:24:00,54.6,51.0,30.41,WSW,247,5.6,10.7,88,0.00,,,0.00,Rainwise IP-100,2013-04-02 19:24:00,
2013-04-02 12:29:00,55.4,51.0,30.41,SSW,202,4.2,10.0,87,0.00,,,0.00,Rainwise IP-100,2013-04-02 19:29:00,
2013-04-02 12:34:00,56.0,52.0,30.42,NNW,337,1.4,8.4,86,0.00,,,0.00,Rainwise IP-100,2013-04-02 19:34:00,
2013-04-02 12:39:00,56.0,51.0,30.41,SW,225,1.9,12.4,85,0.00,,,0.00,Rainwise IP-100,2013-04-02 19:39:00,
2013-04-02 12:44:00,55.5,51.0,30.41,WNW,292,2.3,12.6,85,0.00,,,0.00,Rainwise IP-100,2013-04-02 19:44:00,
2013-04-02 12:49:00,55.2,51.0,30.41,SSW,202,7.7,11.7,86,0.00,,,0.00,Rainwise IP-100,2013-04-02 19:49:00,
2013-04-02 12:54:00,55.0,51.0,30.41,SSW,202,11.4,11.9,86,0.00,,,0.00,Rainwise IP-100,2013-04-02 19:54:00,
2013-04-02 12:59:00,54.8,51.0,30.40,SSW,202,7.9,15.2,87,0.00,,,0.00,Rainwise IP-100,2013-04-02 19:59:00,
2013-04-02 13:04:00,55.0,51.0,30.41,South,180,3.3,15.2,87,0.00,,,0.00,Rainwise IP-100,2013-04-02 20:04:00,
2013-04-02 13:09:00,54.9,51.0,30.41,WNW,292,4.4,14.7,87,0.00,,,0.00,Rainwise IP-100,2013-04-02 20:09:00,
2013-04-02 13:14:00,54.6,50.5,30.41,South,180,6.3,14.2,87,0.00,,,0.00,Rainwise IP-100,2013-04-02 20:14:00,
2013-04-02 13:19:00,54.6,50.5,30.40,WSW,247,2.1,15.4,87,0.00,,,0.00,Rainwise IP-100,2013-04-02 20:19:00,
2013-04-02 13:24:00,54.4,51.0,30.40,ESE,112,1.2,13.8,88,0.00,,,0.00,Rainwise IP-100,2013-04-02 20:24:00,
2013-04-02 13:29:00,54.3,51.0,30.40,WNW,292,9.3,15.4,88,0.00,,,0.00,Rainwise IP-100,2013-04-02 20:29:00,
2013-04-02 13:34:00,54.4,51.0,30.40,WSW,247,8.2,14.2,88,0.00,,,0.00,Rainwise IP-100,2013-04-02 20:34:00,
2013-04-02 13:39:00,54.3,50.5,30.40,WSW,247,9.3,12.1,87,0.00,,,0.00,Rainwise IP-100,2013-04-02 20:39:00,
2013-04-02 13:45:00,54.4,50.5,30.40,SSW,202,6.3,12.4,87,0.00,,,0.00,Rainwise IP-100,2013-04-02 20:45:00,
2013-04-02 13:50:00,54.3,50.5,30.39,SSW,202,4.4,15.2,87,0.00,,,0.00,Rainwise IP-100,2013-04-02 20:50:00,
2013-04-02 13:55:00,54.3,50.5,30.39,West,270,6.5,14.0,87,0.00,,,0.00,Rainwise IP-100,2013-04-02 20:55:00,
2013-04-02 14:00:00,54.7,50.5,30.39,SW,225,5.6,18.0,87,0.00,,,0.00,Rainwise IP-100,2013-04-02 21:00:00,
2013-04-02 14:05:00,55.1,51.0,30.39,WSW,247,3.7,14.5,87,0.00,,,0.00,Rainwise IP-100,2013-04-02 21:05:00,
2013-04-02 14:10:00,54.9,51.0,30.39,East,90,0.0,16.3,87,0.00,,,0.00,Rainwise IP-100,2013-04-02 21:10:00,
2013-04-02 14:15:00,54.7,50.5,30.39,NNW,337,0.0,12.8,87,0.00,,,0.00,Rainwise IP-100,2013-04-02 21:15:00,
2013-04-02 14:20:00,54.6,50.5,30.38,SW,225,4.9,9.3,87,0.00,,,0.00,Rainwise IP-100,2013-04-02 21:20:00,
2013-04-02 14:25:00,55.0,51.0,30.39,WNW,292,0.0,13.3,87,0.00,,,0.00,Rainwise IP-100,2013-04-02 21:25:00,
2013-04-02 14:30:00,55.9,51.0,30.39,SSE,157,7.2,12.1,85,0.00,,,0.00,Rainwise IP-100,2013-04-02 21:30:00,
2013-04-02 14:35:00,56.3,52.0,30.39,West,270,3.0,13.1,84,0.00,,,0.00,Rainwise IP-100,2013-04-02 21:35:00,
2013-04-02 14:40:00,56.2,50.5,30.39,WNW,292,6.5,10.5,83,0.00,,,0.00,Rainwise IP-100,2013-04-02 21:40:00,
2013-04-02 14:45:00,55.8,51.0,30.39,West,270,4.7,11.2,84,0.00,,,0.00,Rainwise IP-100,2013-04-02 21:45:00,
2013-04-02 14:50:00,55.4,50.5,30.39,WNW,292,1.9,11.7,85,0.00,,,0.00,Rainwise IP-100,2013-04-02 21:50:00,
2013-04-02 14:55:00,55.2,50.5,30.39,South,180,7.5,11.9,85,0.00,,,0.00,Rainwise IP-100,2013-04-02 21:55:00,
2013-04-02 15:00:00,54.8,50.5,30.39,SSW,202,5.4,12.8,85,0.00,,,0.00,Rainwise IP-100,2013-04-02 22:00:00,
2013-04-02 15:05:00,54.2,50.5,30.39,WNW,292,3.0,14.0,87,0.00,,,0.00,Rainwise IP-100,2013-04-02 22:05:00,
2013-04-02 15:10:00,54.1,50.5,30.39,WSW,247,6.3,15.4,88,0.00,,,0.00,Rainwise IP-100,2013-04-02 22:10:00,
2013-04-02 15:15:00,54.0,50.5,30.39,SSW,202,3.5,11.9,88,0.00,,,0.00,Rainwise IP-100,2013-04-02 22:15:00,
2013-04-02 15:20:00,53.7,50.0,30.39,SSE,157,5.4,14.2,89,0.00,,,0.00,Rainwise IP-100,2013-04-02 22:20:00,
2013-04-02 15:25:00,53.8,50.5,30.39,WNW,292,13.1,13.1,89,0.00,,,0.00,Rainwise IP-100,2013-04-02 22:25:00,
2013-04-02 15:30:00,53.8,50.5,30.38,WNW,292,14.5,14.7,89,0.00,,,0.00,Rainwise IP-100,2013-04-02 22:30:00,
2013-04-02 15:35:00,53.9,50.5,30.39,SSW,202,7.7,18.7,88,0.00,,,0.00,Rainwise IP-100,2013-04-02 22:35:00,
2013-04-02 15:40:00,54.3,51.0,30.38,ENE,67,3.3,11.2,88,0.00,,,0.00,Rainwise IP-100,2013-04-02 22:40:00,
2013-04-02 15:45:00,54.4,51.0,30.38,WNW,292,1.4,14.5,88,0.00,,,0.00,Rainwise IP-100,2013-04-02 22:45:00,
2013-04-02 15:50:00,54.5,51.0,30.38,NNE,22,0.0,13.5,88,0.00,,,0.00,Rainwise IP-100,2013-04-02 22:50:00,
2013-04-02 15:55:00,54.9,52.0,30.37,WNW,292,2.1,12.1,88,0.00,,,0.00,Rainwise IP-100,2013-04-02 22:55:00,
2013-04-02 16:00:00,55.0,51.0,30.37,SSE,157,3.5,12.8,87,0.00,,,0.00,Rainwise IP-100,2013-04-02 23:00:00,
2013-04-02 16:05:00,55.1,51.0,30.38,WSW,247,3.5,14.9,87,0.00,,,0.00,Rainwise IP-100,2013-04-02 23:05:00,
2013-04-02 16:10:00,55.1,51.0,30.37,West,270,7.7,11.9,87,0.00,,,0.00,Rainwise IP-100,2013-04-02 23:10:00,
2013-04-02 16:15:00,55.1,51.0,30.37,SSW,202,8.9,11.7,87,0.00,,,0.00,Rainwise IP-100,2013-04-02 23:15:00,
2013-04-02 16:20:00,55.2,51.0,30.36,West,270,2.6,11.7,86,0.00,,,0.00,Rainwise IP-100,2013-04-02 23:20:00,
2013-04-02 16:25:00,55.3,51.0,30.36,WSW,247,4.2,10.5,86,0.00,,,0.00,Rainwise IP-100,2013-04-02 23:25:00,
2013-04-02 16:30:00,55.4,51.0,30.36,SSE,157,7.2,10.7,86,0.00,,,0.00,Rainwise IP-100,2013-04-02 23:30:00,
2013-04-02 16:35:00,55.2,51.0,30.35,SSW,202,2.8,10.0,86,0.00,,,0.00,Rainwise IP-100,2013-04-02 23:35:00,
2013-04-02 16:40:00,55.4,50.5,30.35,West,270,6.3,9.8,85,0.00,,,0.00,Rainwise IP-100,2013-04-02 23:40:00,
2013-04-02 16:45:00,55.8,51.0,30.35,West,270,4.0,9.6,85,0.00,,,0.00,Rainwise IP-100,2013-04-02 23:45:00,
2013-04-02 16:50:00,56.0,51.0,30.36,WSW,247,2.3,9.6,84,0.00,,,0.00,Rainwise IP-100,2013-04-02 23:50:00,
2013-04-02 16:55:00,56.0,51.0,30.36,WNW,292,4.7,11.0,84,0.00,,,0.00,Rainwise IP-100,2013-04-02 23:55:00,
2013-04-02 17:00:00,55.5,51.0,30.35,WNW,292,7.2,14.0,84,0.00,,,0.00,Rainwise IP-100,2013-04-03 00:00:00,
2013-04-02 17:05:00,54.9,50.5,30.35,WNW,292,3.7,10.7,85,0.00,,,0.00,Rainwise IP-100,2013-04-03 00:05:00,
2013-04-02 17:10:00,54.5,50.5,30.35,WSW,247,8.2,10.0,86,0.00,,,0.00,Rainwise IP-100,2013-04-03 00:10:00,
2013-04-02 17:15:00,54.5,50.5,30.35,West,270,1.9,8.2,87,0.00,,,0.00,Rainwise IP-100,2013-04-03 00:15:00,
2013-04-02 17:20:00,54.3,50.5,30.35,WNW,292,8.9,14.0,87,0.00,,,0.00,Rainwise IP-100,2013-04-03 00:20:00,
2013-04-02 17:25:00,53.7,50.0,30.35,WSW,247,2.1,11.2,88,0.00,,,0.00,Rainwise IP-100,2013-04-03 00:25:00,
2013-04-02 17:30:00,53.0,50.0,30.35,WNW,292,4.2,11.2,89,0.00,,,0.00,Rainwise IP-100,2013-04-03 00:30:00,
2013-04-02 17:35:00,52.5,50.0,30.35,WSW,247,7.7,13.1,90,0.00,,,0.00,Rainwise IP-100,2013-04-03 00:35:00,
2013-04-02 17:40:00,52.2,49.0,30.35,WNW,292,2.3,11.4,91,0.00,,,0.00,Rainwise IP-100,2013-04-03 00:40:00,
2013-04-02 17:45:00,52.1,49.0,30.35,WNW,292,4.7,13.3,91,0.00,,,0.00,Rainwise IP-100,2013-04-03 00:45:00,
2013-04-02 17:50:00,51.9,50.0,30.36,WSW,247,2.3,16.1,92,0.00,,,0.00,Rainwise IP-100,2013-04-03 00:50:00,
2013-04-02 17:55:00,51.7,50.0,30.36,WNW,292,2.6,12.8,92,0.00,,,0.00,Rainwise IP-100,2013-04-03 00:55:00,
2013-04-02 18:00:00,51.6,50.0,30.35,WSW,247,9.6,15.2,93,0.00,,,0.00,Rainwise IP-100,2013-04-03 01:00:00,
2013-04-02 18:05:00,51.5,50.0,30.35,West,270,4.2,14.9,93,0.00,,,0.00,Rainwise IP-100,2013-04-03 01:05:00,
2013-04-02 18:10:00,51.4,50.0,30.35,WNW,292,11.7,12.8,94,0.00,,,0.00,Rainwise IP-100,2013-04-03 01:10:00,
2013-04-02 18:15:00,51.1,50.0,30.35,East,90,3.0,15.4,94,0.00,,,0.00,Rainwise IP-100,2013-04-03 01:15:00,
2013-04-02 18:20:00,51.0,50.0,30.34,WSW,247,3.7,11.4,94,0.00,,,0.00,Rainwise IP-100,2013-04-03 01:20:00,
2013-04-02 18:25:00,51.1,50.0,30.34,NNW,337,1.6,10.5,95,0.00,,,0.00,Rainwise IP-100,2013-04-03 01:25:00,
2013-04-02 18:30:00,51.0,50.0,30.34,NNW,337,1.6,14.2,95,0.00,,,0.00,Rainwise IP-100,2013-04-03 01:30:00,
2013-04-02 18:36:00,50.8,50.0,30.33,SW,225,2.3,10.3,95,0.00,,,0.00,Rainwise IP-100,2013-04-03 01:36:00,
2013-04-02 18:41:00,50.7,49.0,30.34,SW,225,10.0,10.5,95,0.00,,,0.00,Rainwise IP-100,2013-04-03 01:41:00,
2013-04-02 18:46:00,50.7,49.0,30.33,SW,225,2.3,11.0,95,0.00,,,0.00,Rainwise IP-100,2013-04-03 01:46:00,
2013-04-02 18:51:00,50.5,50.0,30.33,WSW,247,4.4,10.5,96,0.00,,,0.00,Rainwise IP-100,2013-04-03 01:51:00,
2013-04-02 18:56:00,50.4,50.0,30.34,SW,225,4.7,10.5,96,0.00,,,0.00,Rainwise IP-100,2013-04-03 01:56:00,
2013-04-02 19:01:00,50.4,50.0,30.33,ENE,67,0.0,11.7,96,0.00,,,0.00,Rainwise IP-100,2013-04-03 02:01:00,
2013-04-02 19:06:00,50.2,49.0,30.33,SW,225,0.0,10.0,97,0.00,,,0.00,Rainwise IP-100,2013-04-03 02:06:00,
2013-04-02 19:11:00,50.0,49.0,30.34,WSW,247,4.4,9.8,97,0.00,,,0.00,Rainwise IP-100,2013-04-03 02:11:00,
2013-04-02 19:16:00,49.9,49.0,30.33,WSW,247,3.3,12.4,97,0.00,,,0.00,Rainwise IP-100,2013-04-03 02:16:00,
2013-04-02 19:21:00,49.9,49.0,30.33,SW,225,2.6,9.6,97,0.00,,,0.00,Rainwise IP-100,2013-04-03 02:21:00,
2013-04-02 19:26:00,49.8,49.0,30.34,WSW,247,1.2,8.4,98,0.00,,,0.00,Rainwise IP-100,2013-04-03 02:26:00,
2013-04-02 19:31:00,49.6,49.0,30.33,NNW,337,2.8,8.2,98,0.00,,,0.00,Rainwise IP-100,2013-04-03 02:31:00,
2013-04-02 19:36:00,49.5,49.0,30.33,WNW,292,4.2,10.0,98,0.00,,,0.00,Rainwise IP-100,2013-04-03 02:36:00,
2013-04-02 19:41:00,49.5,49.0,30.33,WSW,247,2.1,8.6,98,0.00,,,0.00,Rainwise IP-100,2013-04-03 02:41:00,
2013-04-02 19:46:00,49.5,50.0,30.33,WNW,292,3.5,13.3,99,0.00,,,0.00,Rainwise IP-100,2013-04-03 02:46:00,
2013-04-02 19:51:00,49.5,50.0,30.33,SW,225,2.1,13.1,99,0.00,,,0.00,Rainwise IP-100,2013-04-03 02:51:00,
2013-04-02 19:56:00,49.3,49.0,30.34,NNE,22,0.0,11.0,99,0.00,,,0.00,Rainwise IP-100,2013-04-03 02:56:00,
2013-04-02 20:01:00,49.1,49.0,30.34,West,270,1.6,8.6,99,0.00,,,0.00,Rainwise IP-100,2013-04-03 03:01:00,
2013-04-02 20:06:00,49.0,49.0,30.34,West,270,4.7,10.3,99,0.00,,,0.00,Rainwise IP-100,2013-04-03 03:06:00,
2013-04-02 20:11:00,48.9,49.0,30.35,NNW,337,3.0,12.4,99,0.00,,,0.00,Rainwise IP-100,2013-04-03 03:11:00,
2013-04-02 20:16:00,48.9,49.0,30.35,WNW,292,4.2,12.4,99,0.00,,,0.00,Rainwise IP-100,2013-04-03 03:16:00,
2013-04-02 20:21:00,48.9,49.0,30.35,SSW,202,1.9,10.0,99,0.00,,,0.00,Rainwise IP-100,2013-04-03 03:21:00,
2013-04-02 20:26:00,49.0,49.0,30.35,SW,225,1.2,10.0,99,0.00,,,0.00,Rainwise IP-100,2013-04-03 03:26:00,
2013-04-02 20:31:00,49.0,49.0,30.35,WNW,292,9.1,9.1,100,0.00,,,0.00,Rainwise IP-100,2013-04-03 03:31:00,
2013-04-02 20:36:00,48.9,49.0,30.35,WNW,292,3.5,11.9,100,0.00,,,0.00,Rainwise IP-100,2013-04-03 03:36:00,
2013-04-02 20:41:00,48.9,49.0,30.35,NE,45,1.2,7.0,100,0.00,,,0.00,Rainwise IP-100,2013-04-03 03:41:00,
2013-04-02 20:46:00,49.0,49.0,30.35,SW,225,0.0,11.2,100,0.00,,,0.00,Rainwise IP-100,2013-04-03 03:46:00,
2013-04-02 20:51:00,49.0,49.0,30.35,SSE,157,2.3,13.1,100,0.00,,,0.00,Rainwise IP-100,2013-04-03 03:51:00,
2013-04-02 20:56:00,49.0,49.0,30.36,WSW,247,2.1,8.4,100,0.00,,,0.00,Rainwise IP-100,2013-04-03 03:56:00,
2013-04-02 21:00:00,49.0,49.0,30.35,WNW,292,5.6,8.2,100,0.00,,,0.00,Rainwise IP-100,2013-04-03 04:00:00,
2013-04-02 21:01:00,49.0,49.0,30.36,SSW,202,2.6,8.2,100,0.00,,,0.00,Rainwise IP-100,2013-04-03 04:01:00,
2013-04-02 21:06:00,48.9,49.0,30.36,NW,315,6.1,10.0,100,0.00,,,0.00,Rainwise IP-100,2013-04-03 04:06:00,
2013-04-02 21:11:00,48.8,49.0,30.37,West,270,4.4,10.5,100,0.00,,,0.00,Rainwise IP-100,2013-04-03 04:11:00,
2013-04-02 21:16:00,48.9,49.0,30.37,WSW,247,4.7,8.4,100,0.00,,,0.00,Rainwise IP-100,2013-04-03 04:16:00,
2013-04-02 21:21:00,49.0,49.0,30.37,WSW,247,4.7,13.5,100,0.00,,,0.00,Rainwise IP-100,2013-04-03 04:21:00,
2013-04-02 21:26:00,48.8,49.0,30.36,West,270,6.3,14.5,100,0.00,,,0.00,Rainwise IP-100,2013-04-03 04:26:00,
2013-04-02 21:31:00,48.7,49.0,30.37,WSW,247,2.3,11.0,100,0.00,,,0.00,Rainwise IP-100,2013-04-03 04:31:00,
2013-04-02 21:36:00,48.6,49.0,30.37,SW,225,3.5,14.7,100,0.00,,,0.00,Rainwise IP-100,2013-04-03 04:36:00,
2013-04-02 21:41:00,48.6,49.0,30.38,WSW,247,11.2,11.9,100,0.00,,,0.00,Rainwise IP-100,2013-04-03 04:41:00,
2013-04-02 21:46:00,48.5,49.0,30.38,WNW,292,4.0,14.5,100,0.00,,,0.00,Rainwise IP-100,2013-04-03 04:46:00,
2013-04-02 21:51:00,48.4,48.0,30.37,WNW,292,1.9,15.4,100,0.00,,,0.00,Rainwise IP-100,2013-04-03 04:51:00,
2013-04-02 21:56:00,48.2,48.0,30.37,SSW,202,1.9,15.2,100,0.00,,,0.00,Rainwise IP-100,2013-04-03 04:56:00,
2013-04-02 22:02:00,48.1,48.0,30.37,WSW,247,9.6,12.1,100,0.00,,,0.00,Rainwise IP-100,2013-04-03 05:02:00,
2013-04-02 22:06:00,48.1,48.0,30.37,WNW,292,9.6,12.6,100,0.00,,,0.00,Rainwise IP-100,2013-04-03 05:06:00,
2013-04-02 22:11:00,48.0,48.0,30.37,SW,225,2.3,17.0,100,0.00,,,0.00,Rainwise IP-100,2013-04-03 05:11:00,
2013-04-02 22:16:00,48.0,48.0,30.37,SW,225,2.8,13.5,100,0.00,,,0.00,Rainwise IP-100,2013-04-03 05:16:00,
2013-04-02 22:21:00,48.0,48.0,30.37,West,270,6.1,16.3,100,0.00,,,0.00,Rainwise IP-100,2013-04-03 05:21:00,
2013-04-02 22:26:00,48.1,48.0,30.37,West,270,5.6,14.7,100,0.00,,,0.00,Rainwise IP-100,2013-04-03 05:26:00,
2013-04-02 22:31:00,48.0,48.0,30.37,West,270,7.5,14.0,100,0.00,,,0.00,Rainwise IP-100,2013-04-03 05:31:00,
2013-04-02 22:36:00,48.0,48.0,30.37,WNW,292,2.6,13.8,100,0.00,,,0.00,Rainwise IP-100,2013-04-03 05:36:00,
2013-04-02 22:41:00,48.1,48.0,30.37,WNW,292,0.0,10.5,100,0.00,,,0.00,Rainwise IP-100,2013-04-03 05:41:00,
2013-04-02 22:46:00,48.1,48.0,30.38,WSW,247,7.0,11.2,100,0.00,,,0.00,Rainwise IP-100,2013-04-03 05:46:00,
2013-04-02 22:51:00,48.1,48.0,30.37,West,270,3.5,10.5,100,0.00,,,0.00,Rainwise IP-100,2013-04-03 05:51:00,
2013-04-02 22:56:00,48.2,48.0,30.38,NW,315,2.8,8.4,100,0.00,,,0.00,Rainwise IP-100,2013-04-03 05:56:00,
2013-04-02 23:01:00,48.2,48.0,30.38,SW,225,1.2,12.6,100,0.00,,,0.00,Rainwise IP-100,2013-04-03 06:01:00,
2013-04-02 23:06:00,48.2,48.0,30.38,SW,225,1.2,5.1,100,0.00,,,0.00,Rainwise IP-100,2013-04-03 06:06:00,
2013-04-02 23:11:00,48.2,48.0,30.38,SW,225,2.1,9.6,100,0.00,,,0.00,Rainwise IP-100,2013-04-03 06:11:00,
2013-04-02 23:16:00,48.2,48.0,30.38,WSW,247,1.2,8.4,100,0.00,,,0.00,Rainwise IP-100,2013-04-03 06:16:00,
2013-04-02 23:21:00,48.2,48.0,30.37,South,180,2.6,5.8,100,0.00,,,0.00,Rainwise IP-100,2013-04-03 06:21:00,
2013-04-02 23:26:00,48.2,48.0,30.37,WNW,292,0.0,7.5,100,0.00,,,0.00,Rainwise IP-100,2013-04-03 06:26:00,
2013-04-02 23:31:00,48.2,48.0,30.37,West,270,0.0,5.6,100,0.00,,,0.00,Rainwise IP-100,2013-04-03 06:31:00,
2013-04-02 23:36:00,48.2,48.0,30.37,WSW,247,1.4,3.0,100,0.00,,,0.00,Rainwise IP-100,2013-04-03 06:36:00,
2013-04-02 23:41:00,48.3,48.0,30.37,NW,315,0.0,5.1,100,0.00,,,0.00,Rainwise IP-100,2013-04-03 06:41:00,
2013-04-02 23:46:00,48.3,48.0,30.36,WNW,292,4.4,4.4,100,0.00,,,0.00,Rainwise IP-100,2013-04-03 06:46:00,
2013-04-02 23:51:00,48.2,48.0,30.36,SSW,202,2.1,7.0,100,0.00,,,0.00,Rainwise IP-100,2013-04-03 06:51:00,
2013-04-02 23:56:00,48.2,48.0,30.36,WNW,292,4.0,6.5,100,0.00,,,0.00,Rainwise IP-100,2013-04-03 06:56:00,